CFG7CF EDDL-LPMA

Flight info

Callsign CFG7CF
Flight time N/A
Altitude 35000
Route MODRU7Z MODRU Z717 MAS UM617 CIV N872 MEDIL DCT KOVIN DCT NIDUV DCT KIHVI UN872 ERIGA UN741 AZFIC DCT GATMO DCT LOTEE DCT AGADO DCT UBANI DCT TUNAV DCT TELMU DCT PECKY DCT LIDRO
Aircraft A321/M-SDE3FGHIRWY/LB1

Departure

Time 2026-05-06 14:14
Airport Düsseldorf Airport (EDDL)

Arrival

Time N/A
Airport Cristiano Ronaldo International Airport (LPMA)
Time Latitude Longitude Altitude Speed Heading
2026-05-06 13:25 51.27999 6.76161 129 ft 0 kts 119°
2026-05-06 14:05 51.27999 6.76160 124 ft 1 kts 119°
2026-05-06 14:06 51.28011 6.76126 124 ft 4 kts 118°
2026-05-06 14:06 51.28020 6.76094 124 ft 4 kts 94°
2026-05-06 14:06 51.28014 6.76061 124 ft 4 kts 34°
2026-05-06 14:06 51.27990 6.76047 124 ft 4 kts 360°
2026-05-06 14:07 51.27966 6.76048 125 ft 1 kts 359°
2026-05-06 14:07 51.27965 6.76048 125 ft 0 kts 359°
2026-05-06 14:10 51.27973 6.76047 124 ft 4 kts 359°
2026-05-06 14:10 51.28005 6.76047 126 ft 7 kts
2026-05-06 14:11 51.28055 6.76048 126 ft 6 kts 360°
2026-05-06 14:11 51.28087 6.76036 128 ft 5 kts 332°
2026-05-06 14:11 51.28101 6.75988 129 ft 5 kts 270°
2026-05-06 14:11 51.28081 6.75923 126 ft 8 kts 234°
2026-05-06 14:12 51.28044 6.75843 128 ft 10 kts 233°
2026-05-06 14:12 51.27996 6.75741 128 ft 13 kts 232°
2026-05-06 14:12 51.27937 6.75617 127 ft 15 kts 233°
2026-05-06 14:12 51.27867 6.75471 122 ft 16 kts 232°
2026-05-06 14:13 51.27863 6.75335 121 ft 12 kts 315°
2026-05-06 14:13 51.27926 6.75282 121 ft 8 kts 336°
2026-05-06 14:13 51.27983 6.75275 125 ft 11 kts 17°
2026-05-06 14:13 51.28053 6.75394 122 ft 19 kts 53°
2026-05-06 14:14 51.28225 6.75753 129 ft 74 kts 52°
2026-05-06 14:14 51.28662 6.76667 127 ft 131 kts 53°
2026-05-06 14:14 51.29305 6.78024 204 ft 170 kts 53°
2026-05-06 14:14 51.30007 6.79533 873 ft 169 kts 50°
2026-05-06 14:15 51.30728 6.81023 1602 ft 171 kts 48°
2026-05-06 14:15 51.31488 6.82592 1978 ft 187 kts 50°
2026-05-06 14:15 51.32323 6.84325 2187 ft 205 kts 50°
2026-05-06 14:15 51.33237 6.86235 2314 ft 229 kts 50°
2026-05-06 14:16 51.34274 6.88320 2670 ft 247 kts 43°
2026-05-06 14:16 51.35627 6.90022 3372 ft 250 kts 28°
2026-05-06 14:16 51.37258 6.91045 4071 ft 255 kts 12°
2026-05-06 14:16 51.39013 6.91522 4854 ft 257 kts
2026-05-06 14:17 51.40187 6.91829 5342 ft 260 kts
2026-05-06 14:17 51.41993 6.92302 6018 ft 266 kts
2026-05-06 14:17 51.43845 6.92789 6662 ft 271 kts
2026-05-06 14:17 51.45718 6.93283 7349 ft 274 kts
2026-05-06 14:18 51.47626 6.93273 8007 ft 277 kts 347°
2026-05-06 14:18 51.49391 6.92058 8666 ft 280 kts 324°
2026-05-06 14:18 51.50735 6.89788 9310 ft 284 kts 301°
2026-05-06 14:18 51.51534 6.86873 9957 ft 287 kts 291°
2026-05-06 14:19 51.52267 6.83792 10211 ft 306 kts 291°
2026-05-06 14:19 51.53050 6.80481 10348 ft 327 kts 291°
2026-05-06 14:19 51.53874 6.76988 10764 ft 339 kts 291°
2026-05-06 14:19 51.54708 6.73414 11389 ft 345 kts 290°
2026-05-06 14:20 51.55209 6.69607 11960 ft 352 kts 276°
2026-05-06 14:20 51.55140 6.65653 12606 ft 359 kts 263°
2026-05-06 14:20 51.54471 6.61769 13331 ft 363 kts 248°
2026-05-06 14:20 51.53347 6.58123 14034 ft 365 kts 243°
2026-05-06 14:21 51.52175 6.54492 14741 ft 367 kts 243°
2026-05-06 14:21 51.50993 6.50842 15449 ft 370 kts 244°
2026-05-06 14:21 51.49798 6.47158 16062 ft 371 kts 243°
2026-05-06 14:21 51.48601 6.43468 16634 ft 373 kts 243°
2026-05-06 14:22 51.47343 6.39824 17199 ft 375 kts 237°
2026-05-06 14:22 51.45673 6.36582 17757 ft 378 kts 225°
2026-05-06 14:22 51.43625 6.33993 18264 ft 382 kts 212°
2026-05-06 14:22 51.41240 6.32116 18699 ft 386 kts 201°
2026-05-06 14:23 51.38725 6.30647 19144 ft 388 kts 201°
2026-05-06 14:23 51.36167 6.29146 19614 ft 390 kts 201°
2026-05-06 14:23 51.33616 6.27641 20039 ft 392 kts 202°
2026-05-06 14:23 51.31039 6.26117 20454 ft 395 kts 201°
2026-05-06 14:24 51.28487 6.24606 20902 ft 397 kts 202°
2026-05-06 14:24 51.25879 6.23067 21345 ft 399 kts 201°
2026-05-06 14:24 51.23261 6.21526 21775 ft 401 kts 202°
2026-05-06 14:24 51.20627 6.19983 22189 ft 404 kts 201°
2026-05-06 14:25 51.17975 6.18438 22609 ft 406 kts 201°
2026-05-06 14:25 51.15316 6.16886 23021 ft 409 kts 201°
2026-05-06 14:25 51.12633 6.15324 23402 ft 411 kts 201°
2026-05-06 14:25 51.09928 6.13758 23742 ft 414 kts 200°
2026-05-06 14:26 51.07210 6.12183 24106 ft 415 kts 202°
2026-05-06 14:26 51.04652 6.10244 24466 ft 415 kts 212°
2026-05-06 14:26 51.02310 6.07554 24801 ft 417 kts 222°
2026-05-06 14:26 51.00306 6.04213 25145 ft 418 kts 232°
2026-05-06 14:27 50.98709 6.00347 25511 ft 419 kts 241°
2026-05-06 14:27 50.97319 5.96257 25844 ft 421 kts 245°
2026-05-06 14:27 50.96260 5.91920 26160 ft 423 kts 250°
2026-05-06 14:27 50.95385 5.87435 26529 ft 425 kts 254°
2026-05-06 14:28 50.94625 5.82897 26859 ft 427 kts 255°
2026-05-06 14:28 50.93914 5.78368 27152 ft 430 kts 255°
2026-05-06 14:28 50.93189 5.73760 27467 ft 431 kts 255°
2026-05-06 14:28 50.92430 5.69141 27809 ft 432 kts 253°
2026-05-06 14:29 50.91632 5.64513 28101 ft 434 kts 254°